Wind_Speed
12 12 12 12 11 11 10 11 12 14 14 16 16 15 14 14 13 13 12 9 9 8 9 10 10 5 5 7 7 2 5 8 8 9 11 10 6 5 5 7 7 5 5 5 4
13 13 13 12 12 11 11 10 10 12 14 15 17 16 16 15 15 16 9 10 9 7 9 9 7 6 5 3 1 3 6 10 10 11 8 9 8 8 9 8 8 9 8 4 3
13 13 13 13 13 12 11 10 10 10 13 14 16 18 18 18 19 16 14 12 9 8 8 8 6 3 3 3 2 6 6 11 8 10 11 10 9 9 11 10 9 8 10 9 6
13 12 12 13 13 13 12 11 10 9 10 13 15 19 19 21 22 16 15 13 10 9 8 7 2 2 3 3 2 3 7 9 7 8 8 9 8 8 10 14 12 9 10 11 7
14 13 12 12 12 13 12 11 11 10 11 11 12 17 21 21 20 19 16 15 12 9 9 5 2 4 6 4 4 5 9 3 6 8 7 7 8 10 12 14 15 15 13 10 9
15 14 12 12 13 13 13 12 13 11 11 11 11 14 21 22 21 20 18 16 13 10 7 4 8 9 7 5 6 7 6 4 5 7 6 6 6 7 9 11 12 13 17 16 15
16 14 12 11 11 13 13 12 12 11 11 11 11 12 18 21 23 22 19 17 14 11 12 12 12 13 11 7 6 3 2 3 6 5 4 6 3 5 8 11 13 13 14 16 20
17 14 12 11 11 12 12 11 12 11 9 9 9 12 16 21 23 23 20 18 14 15 18 16 13 13 11 9 5 3 1 6 7 6 6 7 6 3 8 11 12 13 14 17 16
19 16 13 12 12 12 12 11 11 9 7 5 6 11 19 24 24 21 20 16 19 20 17 14 12 12 10 5 2 0 3 7 10 6 5 7 6 5 7 9 10 11 12 15 16
21 17 13 12 13 13 12 11 12 12 10 9 9 11 14 15 16 18 18 21 21 17 13 10 9 7 4 2 3 3 4 8 10 8 7 9 4 4 8 11 10 11 9 10 8
23 19 15 13 13 13 12 13 14 14 13 13 14 15 15 16 19 21 22 18 15 14 10 8 7 6 3 4 4 4 5 8 11 7 9 7 3 7 12 14 11 10 5 6 8
23 21 17 15 16 15 15 16 16 15 13 13 15 16 17 16 16 17 17 15 13 12 11 8 6 4 3 5 5 7 6 12 12 6 6 6 8 8 9 12 15 11 9 5 6
22 24 21 19 19 18 17 17 17 15 14 14 13 13 14 15 17 17 15 14 11 10 9 8 3 3 5 6 6 7 9 14 6 3 2 10 7 8 4 8 13 11 10 8 7
21 26 24 22 22 21 20 18 16 15 14 13 13 12 13 14 13 13 11 10 10 10 10 7 3 3 4 5 5 6 10 8 2 1 7 8 9 6 2 10 16 20 22 16 14
22 26 28 25 25 23 21 19 16 14 13 13 13 14 14 12 13 13 12 11 11 10 9 6 5 4 5 7 7 7 10 8 5 3 2 4 5 8 10 11 18 23 28 19 9
24 26 30 28 27 25 22 19 16 15 14 14 13 14 13 13 13 13 12 12 10 9 9 7 7 6 4 6 9 10 8 12 9 4 3 2 6 10 6 11 16 22 22 18 6
24 26 31 31 29 27 23 20 17 16 16 16 15 16 17 16 15 15 13 11 11 13 11 11 8 5 5 5 6 8 11 13 10 8 8 10 12 12 8 15 19 20 17 17 13
24 28 31 32 30 28 25 21 19 19 18 17 15 16 16 18 19 18 16 14 14 14 14 13 8 8 6 7 6 7 12 15 12 11 9 12 17 11 15 16 18 15 13 13 9
23 28 31 33 32 29 26 23 22 21 18 16 16 13 14 18 20 19 17 16 14 13 15 13 12 11 8 4 4 8 11 13 13 12 12 14 12 14 18 17 16 15 14 10 10
21 28 32 34 33 30 27 25 24 22 18 16 13 11 14 15 16 16 15 13 13 15 16 16 13 13 8 5 6 8 12 12 13 11 10 11 9 13 21 17 12 14 12 11 10
19 27 32 34 34 30 26 27 26 22 19 18 13 12 17 16 15 16 16 15 16 18 16 16 14 12 12 9 10 8 9 10 12 11 12 14 9 12 15 15 15 13 13 13 13
17 25 30 33 31 29 28 29 26 23 18 20 18 16 20 17 16 16 19 21 18 16 16 18 14 14 11 12 14 14 11 9 11 14 13 8 2 13 14 14 14 15 16 14 15
18 23 24 28 30 31 32 31 28 23 20 22 19 20 21 20 20 22 22 18 17 15 17 16 13 12 11 14 14 13 14 16 17 17 14 12 7 10 11 12 14 16 17 14 15
19 22 24 27 31 33 32 30 29 23 23 25 19 19 23 22 23 24 21 19 19 19 17 15 11 8 10 13 14 18 19 17 16 15 13 11 10 12 15 14 16 18 17 17 18
19 23 25 26 27 27 29 29 26 23 25 27 22 23 24 22 21 21 23 21 17 18 14 9 11 12 14 15 18 17 18 16 14 14 12 12 12 13 15 18 18 17 18 21 23
18 22 26 26 26 28 31 30 27 25 23 25 22 22 23 24 23 19 12 17 22 20 17 14 18 21 21 18 16 17 19 17 16 16 15 15 15 17 19 20 20 19 20 22 21
20 21 23 26 28 31 35 32 30 28 26 22 21 22 21 21 21 19 16 16 15 18 20 25 23 22 20 20 26 24 22 19 18 17 17 19 20 21 23 21 21 20 19 20 21
Wind_Direction
242 241 239 238 239 243 246 246 240 236 233 228 221 214 212 217 217 215 217 203 203 197 188 212 221 230 277 306 304 334 74 101 87 76 84 91 86 39 32 7 317 284 336 346 17
242 242 241 240 238 239 243 244 244 240 236 231 224 216 210 212 213 215 213 210 208 210 205 220 238 265 282 270 130 87 85 91 84 93 75 73 57 30 24 19 351 353 1 356 350
242 242 241 240 238 236 237 241 242 240 234 231 225 215 210 208 213 221 214 217 216 219 229 231 249 237 199 163 118 99 122 85 79 69 79 72 57 46 33 18 3 354 354 2 357
238 238 241 241 239 237 236 238 240 238 234 228 223 215 210 208 215 215 220 221 224 228 235 249 274 208 145 96 88 143 107 91 78 58 64 61 57 51 45 29 10 345 330 341 354
236 237 238 240 239 237 237 237 238 236 233 231 223 214 211 209 212 216 218 221 219 226 238 264 235 161 117 98 111 151 110 77 62 59 44 51 38 45 63 48 26 355 335 318 321
234 237 241 241 240 237 235 235 234 236 236 232 228 217 209 211 207 212 210 215 215 216 226 161 160 144 121 120 163 149 136 118 65 70 54 29 29 43 61 53 27 3 331 314 300
233 235 240 243 239 230 228 234 229 233 239 234 231 220 207 203 204 205 202 206 210 208 149 157 158 143 140 155 171 153 131 49 40 39 47 15 32 59 60 47 26 356 333 315 295
232 232 233 233 224 216 224 228 223 229 233 236 233 215 202 196 201 200 200 203 202 158 157 165 155 144 147 165 187 170 351 352 349 3 356 345 335 53 60 43 27 5 345 2 306
226 228 227 222 215 219 222 220 213 208 196 193 196 192 188 195 198 193 199 192 159 161 167 171 154 157 166 177 161 289 348 323 328 2 311 318 326 329 15 26 2 360 11 14 2
221 221 221 217 212 215 212 203 190 176 167 153 142 156 175 188 187 183 171 159 168 166 170 177 161 172 187 218 221 294 311 303 319 339 347 326 310 42 30 14 353 328 356 15 11
217 214 212 203 198 197 189 179 171 167 160 149 140 137 138 143 147 150 159 167 163 170 167 169 171 189 239 278 290 272 284 259 291 348 339 317 346 43 26 15 348 316 333 342 346
213 208 204 192 186 177 173 168 166 165 159 155 147 143 141 142 146 154 161 165 171 169 167 177 184 206 280 304 311 280 268 241 272 324 352 327 359 26 22 346 331 307 299 294 328
211 204 199 190 182 175 172 168 165 165 161 160 158 158 155 157 159 162 169 167 168 178 182 193 202 248 295 314 319 281 245 246 281 32 326 329 5 26 5 336 356 353 339 298 288
211 203 197 190 182 179 173 169 168 170 173 173 173 169 171 169 170 174 176 178 184 195 202 213 220 276 303 285 289 256 260 247 189 254 323 350 31 49 325 343 28 22 2 325 291
209 203 198 192 188 187 182 179 177 180 185 185 188 186 181 187 188 189 195 198 207 209 216 222 232 247 243 256 271 245 263 210 170 252 332 352 53 27 9 57 29 11 359 357 358
209 203 199 194 194 195 192 190 190 194 198 201 203 210 205 202 202 205 208 212 220 231 222 232 217 226 237 266 253 243 221 193 213 223 245 321 42 5 17 12 10 354 348 346 346
211 205 200 197 199 200 200 200 203 206 211 214 212 216 221 220 218 218 215 209 205 207 218 216 201 194 223 229 242 228 213 196 217 239 259 289 308 332 322 324 344 351 346 351 340
211 206 200 197 200 203 204 204 207 213 220 227 227 224 225 225 225 221 216 209 209 205 209 212 188 197 227 245 255 247 216 208 229 236 256 291 308 335 332 341 358 345 335 1 18
213 206 199 197 199 202 203 203 212 217 223 231 239 235 228 223 217 215 207 196 197 201 202 180 186 183 210 254 242 195 185 216 236 256 283 294 322 345 350 352 353 348 347 347 337
212 202 197 197 199 201 200 204 214 217 223 231 233 223 224 222 210 199 192 192 196 199 194 185 188 200 225 221 209 232 236 242 258 271 295 321 315 328 336 341 346 343 358 342 350
205 196 194 195 198 199 199 210 216 219 220 218 213 218 216 217 195 187 188 195 198 194 194 194 197 208 223 227 234 254 266 265 270 284 288 321 332 319 327 329 338 336 344 343 331
191 187 189 194 196 196 202 212 218 217 216 207 219 222 211 198 187 185 192 204 204 206 191 199 209 221 236 254 255 259 277 263 272 288 279 292 343 314 312 319 325 323 326 330 316
183 183 185 191 193 197 205 212 216 213 203 193 210 213 201 193 185 180 178 190 193 190 191 201 209 229 242 259 268 270 270 274 281 283 276 262 292 308 309 311 316 312 308 303 296
181 183 184 188 194 200 206 212 218 213 198 195 193 186 184 191 189 186 186 191 206 215 203 206 222 249 268 270 273 280 278 275 277 286 280 268 290 299 298 304 310 303 297 290 284
188 192 194 194 192 196 207 215 217 216 200 199 198 195 191 194 196 203 210 217 224 227 229 233 247 267 282 283 278 286 278 277 278 279 277 277 288 293 295 299 299 290 285 283 284
193 198 201 199 197 197 210 213 213 212 212 210 216 217 212 212 214 213 227 221 234 238 240 245 254 261 268 270 281 281 273 270 274 276 275 279 283 287 289 292 289 280 277 274 277
201 203 201 204 201 199 208 210 211 213 211 208 215 210 208 211 222 228 234 249 255 236 244 251 255 271 249 265 277 281 266 268 269 270 273 279 286 288 287 284 279 272 270 267 267
Height
5887 5888 5888 5889 5891 5891 5892 5893 5895 5896 5898 5900 5902 5904 5905 5907 5909 5910 5912 5915 5918 5920 5923 5924 5923 5925 5926 5926 5926 5927 5928 5929 5928 5927 5927 5926 5925 5922 5921 5920 5918 5919 5919 5920 5919
5884 5885 5886 5887 5888 5889 5890 5891 5892 5893 5895 5897 5899 5902 5904 5905 5907 5908 5912 5913 5916 5920 5923 5923 5924 5925 5926 5925 5926 5927 5927 5929 5929 5929 5928 5927 5926 5924 5923 5921 5919 5919 5919 5919 5919
5882 5883 5884 5885 5886 5888 5889 5889 5891 5892 5893 5894 5896 5899 5902 5904 5905 5906 5910 5912 5915 5919 5922 5923 5924 5925 5925 5926 5927 5928 5929 5928 5929 5929 5928 5927 5926 5924 5922 5921 5921 5920 5918 5918 5919
5879 5880 5881 5882 5884 5885 5886 5887 5889 5890 5891 5892 5894 5897 5899 5902 5904 5906 5909 5911 5914 5917 5920 5921 5923 5925 5926 5927 5928 5930 5929 5930 5930 5930 5928 5927 5926 5925 5924 5923 5921 5918 5917 5915 5916
5876 5878 5879 5880 5881 5882 5884 5885 5886 5888 5889 5890 5892 5894 5897 5900 5903 5905 5908 5911 5914 5917 5919 5921 5923 5925 5926 5927 5929 5931 5931 5932 5931 5930 5929 5928 5926 5926 5924 5923 5921 5917 5915 5914 5913
5873 5875 5876 5877 5878 5879 5881 5883 5884 5885 5886 5888 5889 5892 5895 5898 5902 5904 5907 5910 5914 5916 5918 5921 5923 5924 5926 5927 5929 5930 5931 5932 5930 5930 5929 5929 5927 5925 5924 5922 5921 5920 5916 5913 5911
5870 5872 5873 5874 5875 5877 5878 5880 5882 5883 5884 5885 5887 5889 5892 5896 5898 5901 5905 5909 5912 5915 5918 5920 5922 5923 5925 5927 5929 5929 5931 5931 5930 5929 5928 5928 5929 5926 5925 5923 5922 5920 5917 5913 5909
5867 5869 5870 5871 5873 5874 5876 5878 5879 5881 5882 5884 5885 5887 5889 5893 5895 5899 5904 5907 5910 5914 5917 5919 5921 5923 5925 5928 5929 5930 5930 5929 5929 5929 5929 5928 5927 5927 5925 5923 5922 5920 5916 5912 5909
5864 5866 5868 5869 5871 5872 5874 5876 5878 5879 5881 5882 5884 5885 5887 5889 5893 5899 5903 5906 5910 5913 5916 5919 5920 5923 5925 5927 5928 5928 5929 5929 5929 5929 5929 5928 5927 5926 5925 5922 5922 5920 5916 5911 5909
5860 5863 5865 5867 5868 5870 5872 5874 5876 5878 5880 5882 5883 5886 5888 5891 5895 5898 5902 5906 5910 5913 5916 5918 5920 5922 5924 5925 5927 5928 5928 5928 5928 5929 5928 5927 5925 5924 5924 5922 5921 5919 5916 5913 5910
5856 5860 5863 5865 5866 5869 5871 5874 5878 5879 5880 5883 5884 5886 5888 5892 5895 5899 5903 5907 5910 5914 5915 5918 5919 5921 5923 5925 5926 5927 5928 5927 5927 5927 5926 5925 5923 5922 5923 5921 5918 5915 5914 5912 5909
5852 5856 5860 5863 5865 5868 5871 5873 5876 5879 5881 5883 5885 5888 5890 5893 5897 5901 5904 5908 5910 5912 5914 5917 5917 5919 5922 5924 5925 5926 5926 5926 5926 5927 5925 5924 5923 5922 5921 5919 5915 5911 5908 5907 5905
5848 5853 5857 5861 5864 5868 5870 5873 5876 5879 5882 5884 5886 5889 5892 5895 5897 5900 5904 5907 5909 5911 5913 5914 5917 5918 5920 5922 5923 5924 5925 5925 5927 5925 5925 5924 5924 5923 5921 5918 5914 5910 5906 5903 5901
5844 5849 5854 5859 5864 5866 5869 5872 5875 5878 5882 5885 5887 5890 5892 5894 5897 5900 5903 5906 5908 5910 5911 5914 5915 5917 5919 5920 5922 5922 5923 5925 5925 5926 5924 5924 5924 5922 5921 5919 5915 5911 5906 5901 5899
5840 5845 5851 5857 5860 5864 5868 5871 5875 5878 5881 5885 5886 5889 5892 5895 5898 5899 5902 5904 5906 5909 5911 5914 5914 5916 5917 5918 5919 5921 5921 5924 5924 5924 5925 5924 5924 5922 5920 5917 5913 5910 5905 5902 5897
5835 5840 5847 5853 5858 5862 5866 5870 5874 5878 5879 5882 5884 5887 5890 5893 5896 5898 5901 5903 5905 5906 5908 5911 5912 5914 5915 5916 5917 5919 5920 5922 5923 5924 5925 5924 5924 5922 5920 5918 5915 5910 5906 5902 5900
5831 5836 5842 5849 5855 5859 5863 5868 5872 5874 5877 5880 5882 5884 5887 5890 5893 5895 5898 5900 5903 5905 5907 5909 5911 5912 5914 5915 5916 5917 5919 5920 5923 5923 5924 5922 5923 5921 5919 5916 5914 5909 5904 5902 5899
5827 5832 5838 5845 5851 5856 5861 5866 5868 5871 5873 5876 5879 5882 5885 5887 5890 5892 5895 5898 5901 5903 5905 5908 5910 5912 5913 5915 5915 5915 5917 5919 5920 5921 5922 5920 5920 5920 5917 5915 5912 5908 5903 5900 5898
5822 5827 5834 5841 5847 5852 5858 5862 5864 5868 5871 5874 5876 5879 5881 5883 5886 5889 5892 5895 5898 5901 5905 5906 5909 5911 5912 5913 5914 5914 5916 5918 5918 5919 5920 5919 5919 5917 5914 5911 5909 5906 5903 5900 5898
5817 5822 5829 5836 5843 5849 5855 5858 5861 5865 5868 5871 5874 5876 5877 5880 5884 5887 5890 5894 5897 5899 5902 5905 5908 5910 5911 5913 5914 5915 5916 5917 5917 5918 5918 5917 5916 5914 5911 5909 5907 5905 5902 5899 5899
5814 5819 5826 5833 5839 5846 5852 5854 5858 5862 5866 5869 5871 5874 5876 5879 5882 5886 5889 5893 5896 5898 5901 5904 5907 5909 5910 5911 5912 5914 5914 5914 5915 5915 5914 5914 5914 5912 5910 5907 5905 5903 5901 5898 5896
5812 5818 5824 5830 5838 5843 5848 5850 5855 5860 5864 5867 5870 5872 5874 5878 5881 5884 5887 5890 5894 5897 5901 5903 5905 5907 5908 5908 5909 5910 5910 5911 5912 5912 5911 5911 5912 5910 5907 5904 5903 5900 5898 5895 5892
5812 5817 5822 5828 5835 5840 5843 5846 5851 5857 5861 5865 5868 5871 5873 5876 5880 5883 5886 5890 5892 5896 5898 5900 5903 5904 5904 5905 5905 5905 5906 5906 5906 5906 5907 5907 5908 5906 5904 5902 5901 5898 5896 5894 5891
5813 5817 5821 5825 5830 5836 5840 5845 5849 5855 5860 5864 5868 5870 5873 5876 5880 5883 5886 5888 5891 5894 5896 5897 5899 5900 5901 5901 5901 5901 5902 5902 5902 5902 5902 5902 5902 5901 5899 5899 5897 5895 5893 5891 5888
5812 5815 5819 5823 5829 5834 5839 5843 5848 5853 5858 5862 5866 5870 5872 5875 5878 5881 5884 5886 5889 5891 5893 5894 5896 5897 5897 5897 5897 5897 5897 5897 5898 5897 5898 5897 5896 5896 5895 5894 5893 5891 5889 5887 5884
5809 5812 5817 5822 5827 5831 5834 5840 5845 5850 5855 5859 5863 5867 5870 5873 5876 5880 5881 5883 5886 5888 5889 5890 5891 5892 5892 5893 5893 5893 5893 5893 5893 5892 5892 5892 5892 5891 5890 5888 5887 5886 5884 5883 5880
5807 5810 5814 5819 5824 5828 5832 5837 5842 5847 5852 5856 5860 5864 5865 5870 5873 5875 5876 5878 5880 5882 5884 5885 5886 5887 5888 5888 5887 5890 5889 5888 5888 5888 5887 5886 5886 5885 5883 5882 5881 5880 5879 5877 5875